Stillwater, OK

9:33 AM CST on February 23, 2018 (GMT -0600)
Stillwater Municipal

Weather History for KSWO - April, 2013

Change the Weather History Date:

Friday, April 5, 2013

  Actual Average Record
Temperature  
Mean Temperature 52 °F -  
Max Temperature 69 °F 66 °F 90 °F (2006)
Min Temperature 35 °F 42 °F 28 °F (2011)
Degree Days  
Heating Degree Days 13    
Growing Degree Days 2 (Base 50)    
Moisture  
Dew Point 41 °F    
Average Humidity 68    
Maximum Humidity 96    
Minimum Humidity 39    
Precipitation  
Precipitation 0.00 in - - ()
Sea Level Pressure  
Sea Level Pressure 30.09 in    
Wind  
Wind Speed 6 mph (South)    
Max Wind Speed 21 mph    
Max Gust Speed 25 mph    
Visibility 9 miles    
Events      
Averages and records for this station are not official NWS values.
T = Trace of Precipitation, MM = Missing Value Source: NWS Daily Summary

Daily Weather History Graph

Daily Weather History Graph

Search for Another Location

Airport or City:

Trip Planner

Search our weather history database for the weather conditions in past years. The results will help you decide how hot, cold, wet, or windy it might be!

Date:

Astronomy

Apr. 05, 2013 Rise Set
Actual Time 7:08 AM CDT 7:53 PM CDT
Civil Twilight 6:42 AM CDT 8:20 PM CDT
Nautical Twilight 6:11 AM CDT 8:50 PM CDT
Astronomical Twilight 5:40 AM CDT 9:22 PM CDT
Moon 4:08 AM CDT (4/5) 3:26 PM CDT (4/5)
Length of Visible Light 13h 37m
Length of Day
12h 45m
Waning Crescent, 23% of the Moon is Illuminated
Apr 5
Waning Crescent
Apr 10
New
Apr 18
First Quarter
Apr 25
Full
May 2
Last Quarter

Hourly Weather History & Observations

Time (CDT) Temp. Windchill Dew Point Humidity Pressure Visibility Wind Dir Wind Speed Gust Speed Precip Events Conditions
12:53 AM 39.9 °F - 37.0 °F 89% 30.18 in 10.0 mi Calm Calm - N/A   Clear
1:53 AM 39.0 °F - 37.0 °F 93% 30.17 in 10.0 mi Calm Calm - N/A   Clear
2:53 AM 37.9 °F 35.5 °F 36.0 °F 93% 30.17 in 10.0 mi West 3.5 mph - N/A   Clear
3:53 AM 37.0 °F - 35.1 °F 93% 30.16 in 10.0 mi Calm Calm - N/A   Clear
4:53 AM 37.0 °F - 35.1 °F 93% 30.16 in 8.0 mi Calm Calm - N/A   Clear
5:53 AM 35.1 °F - 34.0 °F 96% 30.18 in 6.0 mi Calm Calm - N/A   Clear
6:53 AM 35.1 °F - 34.0 °F 96% 30.19 in 7.0 mi Calm Calm - N/A   Clear
7:53 AM 37.9 °F 35.5 °F 36.0 °F 93% 30.20 in 7.0 mi WSW 3.5 mph - N/A   Clear
8:53 AM 42.1 °F 40.2 °F 39.9 °F 92% 30.21 in 8.0 mi SSW 3.5 mph - N/A   Clear
9:53 AM 48.9 °F - 42.1 °F 77% 30.20 in 10.0 mi SW 3.5 mph - N/A   Clear
10:53 AM 57.0 °F - 43.0 °F 59% 30.20 in 10.0 mi SW 9.2 mph - N/A   Clear
11:53 AM 59.0 °F - 43.0 °F 55% 30.18 in 10.0 mi SSW 10.4 mph - N/A   Clear
12:53 PM 63.0 °F - 43.0 °F 48% 30.15 in 10.0 mi South 15.0 mph - N/A   Clear
1:53 PM 64.9 °F - 42.1 °F 43% 30.10 in 10.0 mi South 13.8 mph 21.9 mph N/A   Clear
2:53 PM 66.9 °F - 43.0 °F 42% 30.07 in 10.0 mi South 15.0 mph 23.0 mph N/A   Clear
3:53 PM 69.1 °F - 44.1 °F 40% 30.03 in 10.0 mi South 13.8 mph 21.9 mph N/A   Clear
4:53 PM 68.0 °F - 42.1 °F 39% 29.99 in 10.0 mi South 16.1 mph 23.0 mph N/A   Clear
5:53 PM 66.9 °F - 44.1 °F 44% 29.96 in 10.0 mi South 18.4 mph - N/A   Clear
6:53 PM 64.9 °F - 45.0 °F 48% 29.96 in 10.0 mi South 12.7 mph - N/A   Clear
7:53 PM 62.1 °F - 44.1 °F 52% 29.94 in 10.0 mi South 12.7 mph - N/A   Clear
8:53 PM 60.1 °F - 45.0 °F 57% 29.93 in 10.0 mi South 13.8 mph - N/A   Clear
9:53 PM 59.0 °F - 45.0 °F 60% 29.93 in 10.0 mi South 15.0 mph - N/A   Clear
10:53 PM 57.9 °F - 45.0 °F 62% 29.91 in 10.0 mi South 19.6 mph 25.3 mph N/A   Clear
11:53 PM 57.0 °F - 45.0 °F 64% 29.89 in 10.0 mi South 20.7 mph - N/A   Clear